Time,TemperatureF,DewpointF,PressureIn,WindDirection,WindDirectionDegrees,WindSpeedMPH,WindSpeedGustMPH,Humidity,HourlyPrecipIn,Conditions,Clouds,dailyrainin,SoftwareType,DateUTC
2013-08-26 00:13:00,69.0,67.0,30.22,ENE,60,0.0,0.0,94,0.00,,,0.00,,2013-08-26 05:13:00,
2013-08-26 00:23:00,69.0,67.0,30.22,ENE,60,0.0,0.0,93,0.00,,,0.00,,2013-08-26 05:23:00,
2013-08-26 00:43:00,68.0,66.0,30.22,ENE,60,0.0,0.0,94,0.00,,,0.00,,2013-08-26 05:43:00,
2013-08-26 00:52:00,69.0,68.0,30.22,ENE,60,0.0,0.0,95,0.00,,,0.00,,2013-08-26 05:52:00,
2013-08-26 01:12:00,69.0,68.0,30.22,ENE,60,0.0,0.0,95,0.00,,,0.00,,2013-08-26 06:12:00,
2013-08-26 01:21:00,69.0,68.0,30.21,ENE,60,0.0,0.0,95,0.00,,,0.00,,2013-08-26 06:21:00,
2013-08-26 01:42:00,69.0,68.0,30.21,ENE,60,0.0,0.0,95,0.00,,,0.00,,2013-08-26 06:42:00,
2013-08-26 01:52:00,69.0,68.0,30.21,ENE,60,0.0,0.0,95,0.00,,,0.00,,2013-08-26 06:52:00,
2013-08-26 02:11:00,68.0,67.0,30.21,ENE,60,0.0,0.0,95,0.00,,,0.00,,2013-08-26 07:11:00,
2013-08-26 02:22:00,68.0,67.0,30.21,ENE,60,0.0,0.0,96,0.00,,,0.00,,2013-08-26 07:22:00,
2013-08-26 02:42:00,68.0,67.0,30.21,ENE,60,0.0,0.0,95,0.00,,,0.00,,2013-08-26 07:42:00,
2013-08-26 02:52:00,68.0,67.0,30.21,ENE,60,0.0,0.0,95,0.00,,,0.00,,2013-08-26 07:52:00,
2013-08-26 03:12:00,68.0,67.0,30.21,ENE,60,0.0,0.0,96,0.00,,,0.00,,2013-08-26 08:12:00,
2013-08-26 03:22:00,68.0,67.0,30.21,ENE,60,0.0,0.0,96,0.00,,,0.00,,2013-08-26 08:22:00,
2013-08-26 03:42:00,67.0,66.0,30.21,ENE,60,0.0,0.0,95,0.00,,,0.00,,2013-08-26 08:42:00,
2013-08-26 03:52:00,67.0,66.0,30.20,ENE,60,0.0,0.0,95,0.00,,,0.00,,2013-08-26 08:52:00,
2013-08-26 04:11:00,67.0,66.0,30.20,ENE,60,0.0,0.0,96,0.00,,,0.00,,2013-08-26 09:11:00,
2013-08-26 04:21:00,66.0,65.0,30.20,ENE,60,0.0,0.0,95,0.00,,,0.00,,2013-08-26 09:21:00,
2013-08-26 04:43:00,66.0,65.0,30.20,ENE,60,0.0,0.0,96,0.00,,,0.00,,2013-08-26 09:43:00,
2013-08-26 04:54:00,66.0,65.0,30.20,ENE,60,0.0,0.0,96,0.00,,,0.00,,2013-08-26 09:54:00,
2013-08-26 05:12:00,66.0,65.0,30.20,ENE,60,0.0,0.0,96,0.00,,,0.00,,2013-08-26 10:12:00,
2013-08-26 05:23:00,67.0,66.0,30.21,ENE,60,0.0,0.0,97,0.00,,,0.00,,2013-08-26 10:23:00,
2013-08-26 05:42:00,67.0,66.0,30.21,ENE,60,0.0,0.0,96,0.00,,,0.00,,2013-08-26 10:42:00,
2013-08-26 05:52:00,66.0,65.0,30.21,ENE,60,0.0,0.0,96,0.00,,,0.00,,2013-08-26 10:52:00,
2013-08-26 06:12:00,67.0,66.0,30.21,ENE,60,0.0,0.0,97,0.00,,,0.00,,2013-08-26 11:12:00,
2013-08-26 06:22:00,67.0,66.0,30.22,ENE,60,0.0,0.0,96,0.00,,,0.00,,2013-08-26 11:22:00,
2013-08-26 06:52:00,68.0,67.0,30.22,ENE,60,0.0,1.0,97,0.00,,,0.00,,2013-08-26 11:52:00,
2013-08-26 07:12:00,67.0,66.0,30.22,ENE,60,0.0,0.0,96,0.00,,,0.00,,2013-08-26 12:12:00,
2013-08-26 07:21:00,68.0,67.0,30.23,ENE,60,0.0,0.0,98,0.00,,,0.00,,2013-08-26 12:21:00,
2013-08-26 07:52:00,71.0,70.0,30.23,South,188,0.0,2.0,98,0.00,,,0.00,,2013-08-26 12:52:00,
2013-08-26 08:11:00,72.0,71.0,30.23,South,189,0.0,2.0,98,0.00,,,0.00,,2013-08-26 13:11:00,
2013-08-26 08:21:00,73.0,72.0,30.23,SSW,213,0.0,2.0,98,0.00,,,0.00,,2013-08-26 13:21:00,
2013-08-26 08:42:00,74.0,73.0,30.23,SSW,192,1.0,5.0,97,0.00,,,0.00,,2013-08-26 13:42:00,
2013-08-26 08:52:00,75.0,73.0,30.23,SW,228,4.0,7.0,95,0.00,,,0.00,,2013-08-26 13:52:00,
2013-08-26 09:11:00,76.0,74.0,30.23,SW,226,2.0,6.0,93,0.00,,,0.00,,2013-08-26 14:11:00,
2013-08-26 09:22:00,77.0,74.0,30.24,SSW,192,3.0,6.0,90,0.00,,,0.00,,2013-08-26 14:22:00,
2013-08-26 09:42:00,78.0,75.0,30.23,SW,233,2.0,6.0,90,0.00,,,0.00,,2013-08-26 14:42:00,
2013-08-26 09:52:00,79.0,75.0,30.23,WSW,242,1.0,6.0,88,0.00,,,0.00,,2013-08-26 14:52:00,
2013-08-26 10:12:00,80.0,75.0,30.22,WSW,249,4.0,8.0,85,0.00,,,0.00,,2013-08-26 15:12:00,
2013-08-26 10:22:00,81.0,75.0,30.23,WSW,244,3.0,7.0,83,0.00,,,0.00,,2013-08-26 15:22:00,
2013-08-26 10:47:00,82.0,76.0,30.22,WSW,246,2.0,6.0,81,0.00,,,0.00,,2013-08-26 15:47:00,
2013-08-26 10:59:00,82.0,75.0,30.22,SW,229,3.0,7.0,79,0.00,,,0.00,,2013-08-26 15:59:00,
2013-08-26 11:17:00,83.0,75.0,30.22,SW,234,3.0,9.0,78,0.00,,,0.00,,2013-08-26 16:17:00,
2013-08-26 11:29:00,84.0,75.0,30.21,SW,226,4.0,8.0,75,0.00,,,0.00,,2013-08-26 16:29:00,
2013-08-26 11:48:00,84.0,76.0,30.21,West,260,3.0,8.0,76,0.00,,,0.00,,2013-08-26 16:48:00,
2013-08-26 11:59:00,84.0,76.0,30.21,SW,227,1.0,5.0,76,0.00,,,0.00,,2013-08-26 16:59:00,
2013-08-26 12:12:00,84.0,76.0,30.21,SW,225,1.0,7.0,76,0.00,,,0.00,,2013-08-26 17:12:00,
2013-08-26 12:24:00,85.0,76.0,30.20,WSW,256,1.0,8.0,74,0.00,,,0.00,,2013-08-26 17:24:00,
2013-08-26 12:43:00,85.0,76.0,30.20,West,278,1.0,5.0,74,0.00,,,0.00,,2013-08-26 17:43:00,
2013-08-26 12:53:00,86.0,76.0,30.19,SW,227,2.0,8.0,72,0.00,,,0.00,,2013-08-26 17:53:00,
2013-08-26 13:12:00,86.0,76.0,30.18,SW,228,5.0,9.0,73,0.00,,,0.00,,2013-08-26 18:12:00,
2013-08-26 13:22:00,87.0,76.0,30.18,SSW,194,3.0,8.0,69,0.00,,,0.00,,2013-08-26 18:22:00,
2013-08-26 13:52:00,88.0,75.0,30.17,SSW,205,4.0,8.0,66,0.00,,,0.00,,2013-08-26 18:52:00,
2013-08-26 14:11:00,88.0,75.0,30.16,South,188,3.0,8.0,66,0.00,,,0.00,,2013-08-26 19:11:00,
2013-08-26 14:22:00,88.0,77.0,30.15,SSW,201,3.0,8.0,70,0.00,,,0.00,,2013-08-26 19:22:00,
2013-08-26 14:42:00,88.0,76.0,30.15,South,175,4.0,7.0,68,0.00,,,0.00,,2013-08-26 19:42:00,
2013-08-26 14:52:00,89.0,76.0,30.14,SW,217,3.0,9.0,66,0.00,,,0.00,,2013-08-26 19:52:00,
2013-08-26 15:11:00,88.0,75.0,30.13,South,189,5.0,8.0,66,0.00,,,0.00,,2013-08-26 20:11:00,
2013-08-26 15:22:00,89.0,75.0,30.12,SW,226,3.0,8.0,64,0.00,,,0.00,,2013-08-26 20:22:00,
2013-08-26 15:43:00,88.0,73.0,30.12,South,189,2.0,8.0,62,0.00,,,0.00,,2013-08-26 20:43:00,
2013-08-26 15:52:00,88.0,74.0,30.11,SSW,192,1.0,7.0,63,0.00,,,0.00,,2013-08-26 20:52:00,
2013-08-26 16:11:00,88.0,76.0,30.11,South,191,1.0,5.0,67,0.00,,,0.00,,2013-08-26 21:11:00,
2013-08-26 16:22:00,88.0,73.0,30.11,SW,231,2.0,6.0,62,0.00,,,0.00,,2013-08-26 21:22:00,
2013-08-26 16:55:00,88.0,74.0,30.10,SW,234,4.0,9.0,63,0.00,,,0.00,,2013-08-26 21:55:00,
2013-08-26 17:16:00,87.0,75.0,30.10,SSW,209,3.0,7.0,67,0.00,,,0.00,,2013-08-26 22:16:00,
2013-08-26 17:26:00,86.0,74.0,30.10,SW,234,3.0,6.0,67,0.00,,,0.00,,2013-08-26 22:26:00,
2013-08-26 17:42:00,86.0,75.0,30.09,SW,225,1.0,7.0,69,0.00,,,0.00,,2013-08-26 22:42:00,
2013-08-26 17:53:00,85.0,74.0,30.09,SW,225,1.0,5.0,70,0.00,,,0.00,,2013-08-26 22:53:00,
2013-08-26 18:12:00,85.0,75.0,30.09,SW,222,1.0,4.0,71,0.00,,,0.00,,2013-08-26 23:12:00,
2013-08-26 18:22:00,86.0,76.0,30.09,SW,232,0.0,1.0,73,0.00,,,0.00,,2013-08-26 23:22:00,
2013-08-26 18:52:00,85.0,77.0,30.09,SW,230,0.0,1.0,76,0.00,,,0.00,,2013-08-26 23:52:00,
2013-08-26 19:11:00,84.0,76.0,30.09,SW,230,0.0,1.0,78,0.00,,,0.00,,2013-08-27 00:11:00,
2013-08-26 19:21:00,82.0,75.0,30.09,SW,230,0.0,0.0,80,0.00,,,0.00,,2013-08-27 00:21:00,
2013-08-26 19:42:00,81.0,75.0,30.09,SW,230,0.0,0.0,82,0.00,,,0.00,,2013-08-27 00:42:00,
2013-08-26 19:52:00,80.0,75.0,30.09,SW,230,0.0,1.0,84,0.00,,,0.00,,2013-08-27 00:52:00,
2013-08-26 20:12:00,78.0,73.0,30.09,SW,230,0.0,1.0,86,0.00,,,0.00,,2013-08-27 01:12:00,
2013-08-26 20:22:00,78.0,74.0,30.09,SW,230,0.0,1.0,87,0.00,,,0.00,,2013-08-27 01:22:00,
2013-08-26 20:42:00,77.0,73.0,30.09,SW,229,0.0,1.0,88,0.00,,,0.00,,2013-08-27 01:42:00,
2013-08-26 20:52:00,77.0,74.0,30.09,SW,227,0.0,2.0,89,0.00,,,0.00,,2013-08-27 01:52:00,
2013-08-26 21:12:00,76.0,73.0,30.09,SSW,192,0.0,2.0,89,0.00,,,0.00,,2013-08-27 02:12:00,
2013-08-26 21:21:00,76.0,73.0,30.09,SSW,192,0.0,1.0,89,0.00,,,0.00,,2013-08-27 02:21:00,
2013-08-26 21:42:00,75.0,72.0,30.09,SSW,194,0.0,2.0,90,0.00,,,0.00,,2013-08-27 02:42:00,
2013-08-26 21:52:00,75.0,72.0,30.09,SSW,194,0.0,1.0,91,0.00,,,0.00,,2013-08-27 02:52:00,
2013-08-26 22:12:00,75.0,73.0,30.09,SSW,194,0.0,1.0,92,0.00,,,0.00,,2013-08-27 03:12:00,
2013-08-26 22:22:00,74.0,71.0,30.09,SSW,194,0.0,1.0,91,0.00,,,0.00,,2013-08-27 03:22:00,
2013-08-26 22:44:00,74.0,72.0,30.09,SSW,194,0.0,1.0,92,0.00,,,0.00,,2013-08-27 03:44:00,
2013-08-26 22:58:00,74.0,72.0,30.09,SSW,192,0.0,1.0,92,0.00,,,0.00,,2013-08-27 03:58:00,
2013-08-26 23:18:00,74.0,72.0,30.09,SSW,192,0.0,1.0,92,0.00,,,0.00,,2013-08-27 04:18:00,
2013-08-26 23:47:00,74.0,72.0,30.10,SSW,193,0.0,1.0,93,0.00,,,0.00,,2013-08-27 04:47:00,
2013-08-26 23:54:00,73.0,71.0,30.10,SSW,193,0.0,1.0,93,0.00,,,0.00,,2013-08-27 04:54:00,